This is the latest recevied weather packets stored in our database for station/object HB9FHL-13. If no packets are shown the sender has not sent any weather packets the latest 10 day(s).
| Time | Temp. | Humidity | Pressure | Rain* | Wind** | Luminosity | Snow |
|---|---|---|---|---|---|---|---|
| 1778033285 | 11.67° C | - | 1008.4 hPa | 0 mm | - | - | - |
| 1778032985 | 12.22° C | - | 1011 hPa | 0 mm | - | - | - |
| 1778032684 | 12.78° C | - | 1005.8 hPa | 0 mm | - | - | - |
| 1778032384 | 12.22° C | - | 1008.7 hPa | 0 mm | - | - | - |
| 1778032083 | 12.22° C | - | 1009.8 hPa | 0 mm | - | - | - |
| 1778031783 | 12.22° C | - | 1008.7 hPa | 0 mm | - | - | - |
| 1778031482 | 12.22° C | - | 1007.7 hPa | 0 mm | - | - | - |
| 1778031182 | 12.78° C | - | 1011.4 hPa | 0 mm | - | - | - |
| 1778030882 | 12.78° C | - | 1013.3 hPa | 0 mm | - | - | - |
| 1778030280 | 12.78° C | - | 1009.1 hPa | 0 mm | - | - | - |
| 1778029980 | 12.22° C | - | 1009.9 hPa | 0 mm | - | - | - |
| 1778029680 | 12.22° C | - | 1005.4 hPa | 0 mm | - | - | - |
| 1778029379 | 13.33° C | - | 1010.6 hPa | 0 mm | - | - | - |
| 1778029077 | 13.33° C | - | 1004.9 hPa | 0 mm | - | - | - |
| 1778028776 | 12.78° C | - | 1005.9 hPa | 0 mm | - | - | - |
| 1778028476 | 11.67° C | - | 1006.5 hPa | 0 mm | - | - | - |
| 1778028175 | 12.22° C | - | 1007.5 hPa | 0 mm | - | - | - |
| 1778027875 | 12.78° C | - | 1009.7 hPa | 0 mm | - | - | - |
| 1778027574 | 13.33° C | - | 1012.4 hPa | 0 mm | - | - | - |
| 1778027274 | 12.78° C | - | 1008.7 hPa | 0 mm | - | - | - |
| 1778026974 | 13.33° C | - | 1004.7 hPa | 0 mm | - | - | - |
| 1778026673 | 12.78° C | - | 1007.2 hPa | 0 mm | - | - | - |
| 1778026374 | 13.33° C | - | 1010 hPa | 0 mm | - | - | - |
| 1778026072 | 12.22° C | - | 1009.3 hPa | 0 mm | - | - | - |
| 1778025771 | 12.22° C | - | 1009.8 hPa | 0 mm | - | - | - |
* Rain since midnight (hover to see other rain measurements)
** Current wind speed in m/s (hover to see current wind gust speed)